Flinders Reef Observation History
Time Wind Speed Temp Pressure Rel. Hum Rain
04/08:30am SSE 22-26 kts 23.2°c 1019.2 hPa n/a n/a
04/08:00am SSE 24-27 kts 22.9°c 1018.9 hPa n/a n/a
04/07:30am SSE 21-25 kts 22.9°c 1018.8 hPa n/a n/a
04/07:00am SSE 21-25 kts 22.8°c 1018.3 hPa n/a n/a
04/06:30am SSE 21-24 kts 23.0°c 1018.0 hPa n/a n/a
04/06:00am SSE 21-27 kts 22.8°c 1017.7 hPa n/a n/a
04/05:30am SSE 21-25 kts 22.9°c 1017.4 hPa n/a n/a
04/05:00am SE 21-25 kts 23.2°c 1017.1 hPa n/a n/a
04/04:30am SSE 23-27 kts 23.2°c 1016.7 hPa n/a n/a
04/04:00am SSE 21-24 kts 23.2°c 1016.9 hPa n/a n/a
04/03:30am SSE 21-25 kts 23.2°c 1017.0 hPa n/a n/a
04/03:00am SSE 21-25 kts 23.1°c 1017.2 hPa n/a n/a
04/02:30am SSE 21-25 kts 23.2°c 1017.3 hPa n/a n/a
04/02:00am SSE 20-24 kts 23.3°c 1017.7 hPa n/a n/a
04/01:30am SSE 21-25 kts 23.3°c 1018.2 hPa n/a n/a
04/01:00am SSE 21-24 kts 23.3°c 1018.4 hPa n/a n/a
04/12:30am SSE 21-25 kts 23.4°c 1018.6 hPa n/a n/a
04/12:00am SSE 21-25 kts 23.5°c 1018.7 hPa n/a n/a
Time Wind Speed Temp Pressure Rel. Hum Rain
03/11:30pm SSE 22-26 kts 23.6°c 1019.0 hPa n/a n/a
03/11:00pm SE 23-28 kts 23.9°c 1019.1 hPa n/a n/a
03/10:30pm SSE 23-29 kts 23.7°c 1019.3 hPa n/a n/a
03/10:00pm SE 23-27 kts 24.0°c 1019.2 hPa n/a n/a
03/09:30pm SE 21-27 kts 24.0°c 1019.3 hPa n/a n/a
03/09:25pm SE 20-24 kts 24.1°c 1019.4 hPa n/a n/a
03/09:24pm SE 20-24 kts 24.1°c 1019.6 hPa n/a n/a
03/09:00pm S 21-26 kts 23.9°c 1019.3 hPa n/a n/a
03/08:30pm SSE 22-26 kts 23.6°c 1019.0 hPa n/a n/a
03/08:00pm SSE 23-26 kts 23.8°c 1018.9 hPa n/a n/a
03/07:30pm SSE 21-26 kts 23.8°c 1018.6 hPa n/a n/a
03/07:00pm SSE 21-25 kts 24.2°c 1018.2 hPa n/a n/a
03/06:30pm SSE 21-25 kts 24.2°c 1017.9 hPa n/a n/a
03/06:00pm SSE 22-26 kts 24.0°c 1017.7 hPa n/a n/a
03/05:30pm SSE 20-25 kts 24.0°c 1017.5 hPa n/a n/a
03/05:00pm SSE 21-28 kts 24.1°c 1017.1 hPa n/a n/a
03/04:30pm SSE 21-25 kts 24.0°c 1016.9 hPa n/a n/a
03/04:00pm SSE 22-25 kts 24.0°c 1016.7 hPa n/a n/a
03/03:30pm SSE 20-25 kts 24.2°c 1016.7 hPa n/a n/a
03/03:00pm SSE 21-26 kts 24.0°c 1016.7 hPa n/a n/a
03/02:30pm SSE 22-25 kts 23.9°c 1016.8 hPa n/a n/a
03/02:00pm SSE 23-26 kts 23.8°c 1016.9 hPa n/a n/a
03/01:30pm SSE 23-27 kts 23.9°c 1017.0 hPa n/a n/a
03/01:00pm SSE 23-27 kts 23.9°c 1017.3 hPa n/a n/a
03/12:30pm SSE 23-27 kts 24.1°c 1017.6 hPa n/a n/a
03/12:00pm SSE 23-27 kts 24.2°c 1018.1 hPa n/a n/a
03/11:30am SSE 23-27 kts 24.5°c 1018.4 hPa n/a n/a
03/11:00am SE 24-28 kts 24.4°c 1018.7 hPa n/a n/a
03/10:30am SE 23-27 kts 24.3°c 1018.9 hPa n/a n/a
03/10:00am SSE 24-28 kts 24.3°c 1019.0 hPa n/a n/a
03/09:30am SSE 23-27 kts 24.6°c 1019.1 hPa n/a n/a
03/09:00am SSE 24-28 kts 24.4°c 1019.0 hPa n/a n/a
03/08:30am SSE 24-27 kts 24.6°c 1018.8 hPa n/a n/a
03/08:00am SE 23-26 kts 24.8°c 1018.6 hPa n/a n/a
03/07:30am SE 23-28 kts 24.7°c 1018.4 hPa n/a n/a
03/07:00am SE 23-27 kts 24.6°c 1018.0 hPa n/a n/a
03/06:30am SE 23-27 kts 24.6°c 1017.7 hPa n/a n/a
03/06:00am SE 23-26 kts 24.6°c 1017.3 hPa n/a n/a
03/05:30am SE 23-27 kts 24.5°c 1016.8 hPa n/a n/a
03/05:00am ESE 24-28 kts 24.7°c 1016.7 hPa n/a n/a
03/04:30am SE 22-26 kts 24.5°c 1016.5 hPa n/a n/a
03/04:00am SE 23-26 kts 24.5°c 1016.4 hPa n/a n/a
03/03:30am SE 22-27 kts 24.7°c 1016.5 hPa n/a n/a
03/03:00am SE 22-27 kts 24.3°c 1016.7 hPa n/a n/a
03/02:30am SE 21-25 kts 24.5°c 1016.8 hPa n/a n/a
03/02:00am SE 21-25 kts 24.4°c 1017.0 hPa n/a n/a
03/01:30am SE 20-24 kts 24.6°c 1017.4 hPa n/a n/a
03/01:00am SE 19-22 kts 24.6°c 1017.9 hPa n/a n/a
03/12:30am SE 19-21 kts 24.5°c 1017.9 hPa n/a n/a
03/12:00am SE 19-22 kts 24.4°c 1018.1 hPa n/a n/a
Time Wind Speed Temp Pressure Rel. Hum Rain
02/11:30pm SE 18-20 kts 24.5°c 1018.3 hPa n/a n/a
02/11:00pm SE 18-21 kts 24.4°c 1018.5 hPa n/a n/a
02/10:30pm SE 18-21 kts 24.3°c 1018.6 hPa n/a n/a
02/10:00pm SE 18-22 kts 24.4°c 1018.6 hPa n/a n/a
02/09:30pm SE 19-21 kts 24.7°c 1018.5 hPa n/a n/a
02/09:00pm SE 18-22 kts 24.6°c 1018.5 hPa n/a n/a
02/08:30pm SE 18-22 kts 24.4°c 1018.4 hPa n/a n/a
02/08:00pm SE 18-21 kts 24.3°c 1018.1 hPa n/a n/a
02/07:30pm SSE 18-21 kts 24.6°c 1018.0 hPa n/a n/a
02/07:00pm SSE 19-22 kts 24.4°c 1017.7 hPa n/a n/a
02/06:30pm SSE 19-22 kts 24.3°c 1017.5 hPa n/a n/a
02/06:00pm SSE 18-21 kts 24.4°c 1017.2 hPa n/a n/a
02/05:30pm SSE 18-22 kts 24.4°c 1016.9 hPa n/a n/a
02/05:00pm S 17-19 kts 24.4°c 1016.7 hPa n/a n/a
02/04:30pm S 17-21 kts 24.6°c 1016.4 hPa n/a n/a
02/04:00pm SSE 17-21 kts 24.8°c 1016.2 hPa n/a n/a
02/03:30pm S 17-19 kts 24.7°c 1016.2 hPa n/a n/a
02/03:00pm S 17-20 kts 24.7°c 1016.2 hPa n/a n/a
02/02:30pm S 16-19 kts 24.8°c 1016.2 hPa n/a n/a
02/02:00pm S 16-20 kts 24.6°c 1016.3 hPa n/a n/a
02/01:30pm S 16-19 kts 24.6°c 1016.5 hPa n/a n/a
02/01:00pm S 15-18 kts 24.8°c 1016.8 hPa n/a n/a
02/12:30pm S 14-16 kts 24.7°c 1017.0 hPa n/a n/a
02/12:00pm SSE 15-18 kts 24.6°c 1017.5 hPa n/a n/a
02/11:30am S 15-17 kts 24.7°c 1017.5 hPa n/a n/a
02/11:00am SSE 14-16 kts 24.6°c 1017.9 hPa n/a n/a
02/10:30am SE 12-14 kts 24.6°c 1017.9 hPa n/a n/a
02/10:00am SE 12-14 kts 24.5°c 1018.0 hPa n/a n/a
02/09:30am SE 12-14 kts 24.6°c 1018.2 hPa n/a n/a
02/09:00am SE 12-14 kts 24.5°c 1018.1 hPa n/a n/a
02/08:30am ESE 12-14 kts 24.5°c 1017.9 hPa n/a n/a
02/08:00am SE 12-15 kts 24.5°c 1017.9 hPa n/a n/a
02/07:30am SE 11-14 kts 24.3°c 1017.5 hPa n/a n/a
02/07:00am ESE 11-14 kts 24.3°c 1017.2 hPa n/a n/a
02/06:30am ESE 11-14 kts 24.2°c 1016.9 hPa n/a n/a
02/06:00am ESE 11-13 kts 24.2°c 1016.7 hPa n/a n/a
02/05:30am ESE 11-13 kts 24.4°c 1016.4 hPa n/a n/a
02/05:00am ESE 11-13 kts 24.4°c 1016.2 hPa n/a n/a
02/04:30am ESE 11-13 kts 24.3°c 1016.0 hPa n/a n/a
02/04:00am ESE 11-14 kts 24.5°c 1015.9 hPa n/a n/a
02/03:30am ESE 12-15 kts 24.3°c 1015.7 hPa n/a n/a
02/03:00am ESE 11-14 kts 24.3°c 1015.7 hPa n/a n/a
02/02:30am ESE 11-13 kts 24.4°c 1015.8 hPa n/a n/a
02/02:00am ESE 11-14 kts 24.3°c 1016.0 hPa n/a n/a
02/01:30am ESE 12-14 kts 24.5°c 1016.3 hPa n/a n/a
02/01:00am ESE 12-14 kts 24.5°c 1016.5 hPa n/a n/a
02/12:30am ESE 11-14 kts 24.6°c 1016.9 hPa n/a n/a
02/12:00am SE 11-13 kts 24.7°c 1017.1 hPa n/a n/a